BAW969H EDDH-EGLL

Flight info

Callsign BAW969H
Flight time N/A
Altitude 34000
Route WSN5G/33 WSN N125 ITMIZ DCT ABNED L980 LOGAN
Aircraft A21N/M-SDE2E3FGHIRWXY/LB1

Departure

Time 2026-05-07 18:34
Airport Hamburg Helmut Schmidt Airport (EDDH)

Arrival

Time N/A
Airport London Heathrow Airport (EGLL)
Time Latitude Longitude Altitude Speed Heading
2026-05-07 18:04 53.63249 10.00352 62 ft 0 kts 84°
2026-05-07 18:25 53.63249 10.00346 62 ft 2 kts 84°
2026-05-07 18:25 53.63247 10.00321 62 ft 2 kts 84°
2026-05-07 18:25 53.63246 10.00296 62 ft 2 kts 84°
2026-05-07 18:25 53.63244 10.00270 62 ft 2 kts 84°
2026-05-07 18:26 53.63243 10.00245 62 ft 2 kts 84°
2026-05-07 18:26 53.63243 10.00219 62 ft 2 kts 108°
2026-05-07 18:26 53.63250 10.00197 62 ft 2 kts 129°
2026-05-07 18:26 53.63261 10.00179 62 ft 2 kts 152°
2026-05-07 18:27 53.63275 10.00171 62 ft 1 kts 172°
2026-05-07 18:27 53.63282 10.00170 62 ft 1 kts 178°
2026-05-07 18:27 53.63283 10.00170 62 ft 0 kts 177°
2026-05-07 18:29 53.63278 10.00171 62 ft 2 kts 177°
2026-05-07 18:29 53.63251 10.00174 62 ft 5 kts 175°
2026-05-07 18:29 53.63198 10.00182 62 ft 9 kts 175°
2026-05-07 18:30 53.63128 10.00190 62 ft 10 kts 177°
2026-05-07 18:30 53.63057 10.00169 62 ft 10 kts 206°
2026-05-07 18:30 53.62991 10.00099 62 ft 11 kts 214°
2026-05-07 18:30 53.62931 10.00014 62 ft 11 kts 235°
2026-05-07 18:31 53.62904 9.99934 62 ft 0 kts 241°
2026-05-07 18:31 53.62903 9.99931 62 ft 0 kts 241°
2026-05-07 18:31 53.62902 9.99926 62 ft 0 kts 241°
2026-05-07 18:32 53.62901 9.99925 62 ft 0 kts 241°
2026-05-07 18:32 53.62900 9.99920 62 ft 1 kts 242°
2026-05-07 18:33 53.62888 9.99884 62 ft 6 kts 242°
2026-05-07 18:33 53.62864 9.99798 62 ft 8 kts 259°
2026-05-07 18:33 53.62897 9.99718 62 ft 9 kts 332°
2026-05-07 18:33 53.62907 9.99710 62 ft 3 kts 333°
2026-05-07 18:34 53.63188 9.99468 62 ft 86 kts 333°
2026-05-07 18:34 53.63942 9.98816 62 ft 155 kts 333°
2026-05-07 18:34 53.65044 9.97828 285 ft 190 kts 335°
2026-05-07 18:34 53.66203 9.96848 1146 ft 187 kts 336°
2026-05-07 18:35 53.67325 9.95872 1941 ft 187 kts 336°
2026-05-07 18:35 53.68542 9.94821 2448 ft 204 kts 336°
2026-05-07 18:35 53.69835 9.93708 2960 ft 221 kts 334°
2026-05-07 18:35 53.71036 9.91970 3534 ft 239 kts 302°
2026-05-07 18:36 53.71483 9.89233 4031 ft 257 kts 264°
2026-05-07 18:36 53.71041 9.86220 4648 ft 271 kts 248°
2026-05-07 18:36 53.70384 9.83244 5472 ft 277 kts 246°
2026-05-07 18:36 53.69712 9.80188 6442 ft 279 kts 247°
2026-05-07 18:37 53.69074 9.77151 7395 ft 279 kts 247°
2026-05-07 18:37 53.68449 9.74071 8344 ft 280 kts 248°
2026-05-07 18:37 53.67823 9.71039 9232 ft 271 kts 252°
2026-05-07 18:37 53.67239 9.68046 9796 ft 269 kts 252°
2026-05-07 18:38 53.66656 9.65031 10076 ft 269 kts 252°
2026-05-07 18:38 53.66065 9.62005 10097 ft 268 kts 252°
2026-05-07 18:38 53.65392 9.59115 10100 ft 268 kts 246°
2026-05-07 18:38 53.64513 9.56319 10102 ft 268 kts 239°
2026-05-07 18:39 53.63456 9.53682 10262 ft 276 kts 236°
2026-05-07 18:39 53.62304 9.50979 10629 ft 294 kts 235°
2026-05-07 18:39 53.61067 9.48090 11039 ft 311 kts 235°
2026-05-07 18:39 53.59786 9.45098 11687 ft 320 kts 234°
2026-05-07 18:40 53.58493 9.42083 12506 ft 322 kts 234°
2026-05-07 18:40 53.57179 9.39037 13322 ft 324 kts 234°
2026-05-07 18:40 53.55864 9.35995 14115 ft 326 kts 234°
2026-05-07 18:40 53.54527 9.32903 14901 ft 328 kts 233°
2026-05-07 18:41 53.53175 9.29771 15676 ft 329 kts 234°
2026-05-07 18:41 53.51844 9.26692 16413 ft 331 kts 234°
2026-05-07 18:41 53.50473 9.23521 17037 ft 337 kts 234°
2026-05-07 18:41 53.49089 9.20324 17623 ft 342 kts 234°
2026-05-07 18:42 53.47694 9.17109 18300 ft 344 kts 234°
2026-05-07 18:42 53.46272 9.13836 18981 ft 346 kts 234°
2026-05-07 18:42 53.44857 9.10584 19627 ft 348 kts 235°
2026-05-07 18:42 53.43433 9.07319 20256 ft 350 kts 235°
2026-05-07 18:43 53.42007 9.04054 20870 ft 352 kts 235°
2026-05-07 18:43 53.40553 9.00729 21453 ft 355 kts 236°
2026-05-07 18:43 53.39111 8.97435 22016 ft 357 kts 236°
2026-05-07 18:43 53.37634 8.94064 22594 ft 358 kts 236°
2026-05-07 18:44 53.36216 8.90680 23149 ft 359 kts 239°
2026-05-07 18:44 53.34955 8.87086 23691 ft 360 kts 244°
2026-05-07 18:44 53.33878 8.83310 24216 ft 360 kts 248°
2026-05-07 18:44 53.32967 8.79411 24715 ft 361 kts 250°
2026-05-07 18:45 53.32087 8.75484 25193 ft 363 kts 251°
2026-05-07 18:45 53.31207 8.71532 25653 ft 365 kts 251°
2026-05-07 18:45 53.30318 8.67528 26101 ft 366 kts 251°
2026-05-07 18:45 53.29435 8.63531 26528 ft 368 kts 251°
2026-05-07 18:46 53.28561 8.59537 26938 ft 369 kts 252°
2026-05-07 18:46 53.27674 8.55482 27337 ft 371 kts 252°
2026-05-07 18:46 53.26794 8.51460 27717 ft 372 kts 252°
2026-05-07 18:46 53.25979 8.47343 28086 ft 373 kts 255°
2026-05-07 18:47 53.25197 8.43181 28445 ft 375 kts 255°
2026-05-07 18:47 53.24421 8.39075 28785 ft 376 kts 255°
2026-05-07 18:47 53.23564 8.34907 29140 ft 378 kts 251°
2026-05-07 18:47 53.22580 8.30771 29621 ft 376 kts 250°
2026-05-07 18:48 53.21602 8.26751 30116 ft 373 kts 251°
2026-05-07 18:48 53.20617 8.22701 30593 ft 371 kts 251°
2026-05-07 18:48 53.19664 8.18773 31035 ft 369 kts 251°
2026-05-07 18:48 53.18704 8.14811 31467 ft 367 kts 251°
2026-05-07 18:49 53.17755 8.10891 31882 ft 365 kts 252°
2026-05-07 18:49 53.16812 8.06995 32279 ft 363 kts 252°
2026-05-07 18:49 53.15860 8.03067 32635 ft 363 kts 252°
2026-05-07 18:49 53.14925 7.99205 32926 ft 363 kts 252°
2026-05-07 18:50 53.13985 7.95330 33228 ft 363 kts 252°
2026-05-07 18:50 53.13035 7.91419 33559 ft 361 kts 252°
2026-05-07 18:50 53.12085 7.87518 33893 ft 360 kts 252°
2026-05-07 18:50 53.11150 7.83681 34210 ft 358 kts 253°
2026-05-07 18:51 53.10223 7.79885 34512 ft 357 kts 253°
2026-05-07 18:51 53.09283 7.76040 34801 ft 356 kts 253°
2026-05-07 18:51 53.08354 7.72242 35055 ft 355 kts 253°
2026-05-07 18:51 53.07424 7.68450 35267 ft 355 kts 253°
2026-05-07 18:52 53.06496 7.64670 35462 ft 356 kts 253°
2026-05-07 18:52 53.05550 7.60827 35658 ft 356 kts 253°
2026-05-07 18:52 53.04624 7.57069 35845 ft 356 kts 253°
2026-05-07 18:52 53.03682 7.53252 36028 ft 356 kts 253°
2026-05-07 18:53 53.02734 7.49422 36098 ft 357 kts 253°